955  
ASUS44 KLZK 170310  
RWRLZK  
 
WEATHER ROUNDUP FOR ARKANSAS  
NATIONAL WEATHER SERVICE LITTLE ROCK AR  
1000 PM CDT SAT OCT 16 2021  
 
NOTE: "FAIR" INDICATES FEW OR NO CLOUDS BELOW 12,000 FEET WITH NO  
SIGNIFICANT WEATHER AND/OR S TO VISIBILITY
.  
 
ARZ001-003-010-029-170400-  
NORTHWEST ARKANSAS  
 
CITY SKY/WX TMP DP RH WIND PRES REMARKS
 
FAYETTEVILLE CLEAR 45 41 86 S3 30.31R  
HARRISON CLEAR 50 34 54 W5 30.30R  
ROGERS CLEAR 49 41 74 CALM 30.31R  
SILOAM SPGS CLEAR 47 43 86 CALM 30.31R  
HIGHFILL CLEAR 48 40 73 CALM 30.30R  

 
 
ARZ004-005-016-170400-  
NORTH CENTRAL ARKANSAS  
 
CITY SKY/WX TMP DP RH WIND PRES REMARKS
 
BATESVILLE CLEAR 52 40 63 NW3 30.28R  
FLIPPIN CLEAR 47 42 83 CALM 30.29S  
MTN HOME CLEAR 50 38 63 CALM 30.28R  

 
 
ARZ040-041-170400-  
WEST CENTRAL ARKANSAS  
 
CITY SKY/WX TMP DP RH WIND PRES REMARKS
 
MENA CLEAR 45 45 100 CALM 30.31S  
MOUNT IDA CLEAR 46 44 93 CALM 30.27S  

 
 
ARZ009-017-025-026-028-170400-  
NORTHEAST ARKANSAS  
 
CITY SKY/WX TMP DP RH WIND PRES REMARKS
 
JONESBORO CLEAR 51 40 65 NW5 30.26R  
NEWPORT CLEAR 53 41 63 W6 30.27R  
WALNUT RIDGE CLEAR 54 39 57 NW6 30.27R  
BLYTHEVILLE CLEAR 50 41 71 NW5 30.24R  

 
 
ARZ032-043-044-170400-  
LITTLE ROCK METRO AREA  
 
CITY SKY/WX TMP DP RH WIND PRES REMARKS
 
LITTLE ROCK CLEAR 52 43 71 CALM 30.28R  
N LTL ROCK NWS N/A 55 37 51 CALM 30.23R  
NLR AIRPORT FAIR 57 36 44 NW7 30.27R  
BENTON CLEAR 48 45 87 CALM 30.28R  
JACKSONVILLE CLEAR 48 45 90 CALM 30.26S  
CONWAY PTCLDY 50 48 93 CALM 30.27S  

 
 
ARZ022-023-033-042-170400-  
REMAINDER OF CENTRAL ARKANSAS  
 
CITY SKY/WX TMP DP RH WIND PRES REMARKS
 
SEARCY CLEAR 47 42 83 CALM 30.28R  
HOT SPRINGS CLEAR 52 44 74 NW3 30.29R  
RUSSELLVILLE CLEAR 48 41 76 CALM 30.28S  
CLINTON FAIR 45 43 93 CALM 30.30S  

 
 
ARZ036-170400-  
EAST ARKANSAS  
 
CITY SKY/WX TMP DP RH WIND PRES REMARKS
 
WEST MEMPHIS CLEAR 49 43 80 CALM 30.24R  

 
 
ARZ050-053-066-070-073-170400-  
SOUTHWEST ARKANSAS  
 
CITY SKY/WX TMP DP RH WIND PRES REMARKS
 
TEXARKANA CLEAR 58 39 49 NW3 30.29R  
EL DORADO CLEAR 49 45 86 CALM 30.28R  
DE QUEEN CLEAR 49 45 86 CALM 30.28S  

 
 
ARZ056-057-069-170400-  
SOUTHEAST ARKANSAS  
 
CITY SKY/WX TMP DP RH WIND PRES REMARKS
 
PINE BLUFF CLEAR 55 45 68 CALM 30.27R  
STUTTGART CLEAR 54 43 66 NW5 30.28R  
MONTICELLO CLEAR 50 45 83 CALM 30.26S  
 

 
 
 
 
CLICK HERE TO GO TO PREVIOUS BULLETINS.

The Nexlab AR Page Main Text Page